Flag for Germany Weather past 2 weeks in Leipzig, Saxony, Germany

45 °F

Partly sunny.

Feels Like: 38 °F
Forecast: 42 / 51 °F
Wind: 14 mph from West

Location: Leipzig-Schkeuditz

Current Time: Dec 1, 2015 at 10:23:46 AM

Latest Report: Dec 1, 2015 at 9:50 AM

Visibility: N/A

Pressure: 30.12 "Hg

Humidity: 76%

Dew point: 37 °F

Location of LeipzigLocation

Historic Weather in Leipzig — Graph


Leipzig temperature yesterday

Maximum temperature yesterday: 50 °F (at 11:20 PM)
Minimum temperature yesterday: 41 °F (at 4:50 PM)
Average temperature yesterday: 45 °F

Past Weeks' High & Low Weather Summary

High59 °F (Nov 17, 1:50 PM)100% (Nov 17, 5:50 AM)30.24 "Hg (Nov 17, 5:50 AM)
Low28 °F (Nov 23, 10:20 PM)55% (Nov 18, 1:20 PM)29.36 "Hg (Nov 21, 12:20 PM)
Average42 °F86%29.82 "Hg
* Reported Nov 16 9:20 AM — Dec 1 9:20 AM, Leipzig, Weather by CustomWeather, © 2015

Note: Actual official high and low records may vary slightly from our data, if they occured in-between our weather recording intervals... More about our weather records


Leipzig weather history for previous 24 hours

Time TempWeatherWind HumidityBarometerVisibility
9:20 AM
Tue, Dec 1
45 °FPartly sunny.10 mph76%30.12 "HgN/A
8:50 AM43 °FPartly sunny.9 mph81%30.09 "HgN/A
8:20 AM41 °FBroken clouds.9 mph87%30.09 "HgN/A
7:50 AM43 °FPassing clouds.13 mph81%30.07 "HgN/A
7:20 AM45 °FPartly cloudy.15 mph76%30.07 "HgN/A
6:50 AM45 °FPassing clouds.16 mph81%30.07 "HgN/A
6:20 AM43 °FPartly cloudy.16 mph81%30.04 "HgN/A
5:50 AM43 °FPassing clouds.15 mph81%30.01 "HgN/A
5:20 AM45 °FPassing clouds.21 mph76%30.01 "HgN/A
4:50 AM45 °FPassing clouds.17 mph87%29.98 "HgN/A
4:20 AM46 °FPassing clouds.25 mph82%29.95 "HgN/A
3:50 AM48 °FPassing clouds.22 mph82%29.89 "HgN/A
3:20 AM50 °FSprinkles. Partly cloudy.24 mph88%29.86 "HgN/A
2:50 AM50 °FPartly cloudy.22 mph94%29.83 "HgN/A
2:20 AM50 °FMostly cloudy.31 mph94%29.80 "HgN/A
1:50 AM50 °FPartly cloudy.30 mph88%29.77 "HgN/A
12:50 AM50 °FPassing clouds.26 mph88%29.74 "HgN/A
12:20 AM50 °FPartly cloudy.30 mph88%29.74 "HgN/A
11:20 PM
Mon, Nov 30
50 °FLight rain. Partly cloudy.30 mph82%29.74 "HgN/A
10:50 PM48 °FPassing clouds.30 mph87%29.74 "HgN/A
10:20 PM48 °FLight rain. Partly cloudy.30 mph87%29.74 "HgN/A
9:50 PM48 °FLight rain. Partly cloudy.24 mph87%29.74 "HgN/A
9:20 PM48 °FPartly cloudy.22 mph87%29.77 "HgN/A
8:50 PM48 °FLight rain. Passing clouds.26 mph87%29.77 "HgN/A
8:20 PM48 °FLight rain. Partly cloudy.22 mph87%29.77 "HgN/A
7:50 PM46 °FPassing clouds.18 mph93%29.80 "HgN/A
7:20 PM45 °FLight rain. Partly cloudy.16 mph93%29.80 "HgN/A
6:50 PM43 °FLight rain. Passing clouds.9 mph93%29.83 "HgN/A
5:50 PM41 °FLight rain. Overcast.14 mph93%29.86 "HgN/A
5:20 PM41 °FLight rain. Mostly cloudy.9 mph93%29.89 "HgN/A
4:50 PM41 °FLight rain. Mostly cloudy.8 mph87%29.92 "HgN/A
4:20 PM43 °FLight rain. Overcast.15 mph81%29.92 "HgN/A
3:50 PM43 °FLight rain. Overcast.13 mph81%29.95 "HgN/A
3:20 PM43 °FLight rain. Overcast.13 mph71%29.95 "HgN/A
2:50 PM43 °FOvercast.13 mph71%29.95 "HgN/A
2:20 PM45 °FOvercast.15 mph66%29.98 "HgN/A
1:50 PM45 °FOvercast.14 mph66%30.01 "HgN/A
1:20 PM45 °FOvercast.20 mph61%30.01 "HgN/A
12:50 PM45 °FOvercast.15 mph71%30.01 "HgN/A
12:20 PM45 °FOvercast.17 mph71%30.01 "HgN/A
11:50 AM45 °FOvercast.24 mph71%30.01 "HgN/A
11:20 AM45 °FPartly sunny.21 mph71%30.01 "HgN/A
10:50 AM45 °FBroken clouds.24 mph71%30.01 "HgN/A
10:20 AM43 °FSunny.24 mph76%29.98 "Hg10 mi
Weather by CustomWeather, © 2015

See weather overviewHow to use our weather pages